OE3KJN-13 Weather Reports


time (UTC)temp
C
wind
direction
speed
KPH
gust
KPH
rain 1hr
cm
rain 24hr
cm
rain mn
cm
humidity
%
barometer
mb
20260504081707 27 248 8.0 12.9 0.00 0.00 0.00 100
20260504081206 26 262 8.0 16.1 0.00 0.00 0.00 100
20260504080706 26 157 3.2 14.5 0.00 0.00 0.00 100
20260504080206 27 278 3.2 16.1 0.00 0.00 0.00 100
20260504070202 27 29 0.0 4.8 0.00 0.00 0.00 100
20260504060159 23 247 1.6 4.8 0.00 0.00 0.00 100
20260504050656 22 330 0.0 8.0 0.00 0.00 0.00 100
20260504050155 22 306 1.6 8.0 0.00 0.00 0.00 100
20260504045655 21 272 0.0 9.7 0.00 0.00 0.00 100
20260504045155 20 313 3.2 8.0 0.00 0.00 0.00 100
20260504044654 21 209 1.6 6.4 0.00 0.00 0.00 100
20260504044154 20 278 3.2 8.0 0.00 0.00 0.00 100
20260504043654 20 182 0.0 9.7 0.00 0.00 0.00 100
20260504043154 18 285 3.2 8.0 0.00 0.00 0.00 100
20260504042653 18 310 3.2 6.4 0.00 0.00 0.00 100
20260504042153 18 313 3.2 8.0 0.00 0.00 0.00 100
20260504041653 18 296 0.0 11.3 0.00 0.00 0.00 100
20260504041152 18 268 4.8 8.0 0.00 0.00 0.00 100
20260504040652 17 289 3.2 9.7 0.00 0.00 0.00 100
20260504040152 17 239 1.6 9.7 0.00 0.00 0.00 100
20260504035652 16 288 6.4 9.7 0.00 0.00 0.00 100
20260504035151 16 322 1.6 12.9 0.00 0.00 0.00 100
20260504034651 16 246 6.4 12.9 0.00 0.00 0.00 100
20260504034151 16 343 4.8 14.5 0.00 0.00 0.00 100
20260504033650 16 222 4.8 14.5 0.00 0.00 0.00 100
20260504033150 16 227 11.3 16.1 0.00 0.00 0.00 100
20260504032650 16 253 3.2 16.1 0.00 0.00 0.00 100
20260504032149 16 289 9.7 17.7 0.00 0.00 0.00 100
20260504031649 16 265 11.3 20.9 0.00 0.00 0.00 100
20260504031149 16 296 9.7 22.5 0.00 0.00 0.00 100
20260504030649 16 251 14.5 24.1 0.00 0.00 0.00 100
20260504030148 16 253 8.0 20.9 0.00 0.00 0.00 100
20260504025648 17 291 14.5 19.3 0.00 0.00 0.00 100
20260504025148 17 216 17.7 20.9 0.00 0.00 0.00 100
20260504024647 16 230 14.5 25.7 0.00 0.00 0.00 100
20260504024147 16 233 17.7 20.9 0.00 0.00 0.00 100
20260504023647 16 260 9.7 19.3 0.00 0.00 0.00 100
20260504023146 16 257 3.2 22.5 0.00 0.00 0.00 100
20260504022646 16 240 8.0 17.7 0.00 0.00 0.00 100
20260504022146 16 219 14.5 24.1 0.00 0.00 0.00 100
20260504021646 16 241 14.5 20.9 0.00 0.00 0.00 100
20260504021145 16 246 9.7 17.7 0.00 0.00 0.00 100
20260504020645 16 239 9.7 16.1 0.00 0.00 0.00 100
20260504020145 16 209 12.9 16.1 0.00 0.00 0.00 100
20260504015644 17 241 12.9 17.7 0.00 0.00 0.00 100
20260504015144 17 251 4.8 16.1 0.00 0.00 0.00 100
20260504014644 16 258 4.8 25.7 0.00 0.00 0.00 100
20260504014144 16 236 19.3 24.1 0.00 0.00 0.00 100
20260504013643 17 260 11.3 24.1 0.00 0.00 0.00 100
20260504013143 17 291 4.8 20.9 0.00 0.00 0.00 100
20260504012643 17 253 14.5 19.3 0.00 0.00 0.00 100
20260504012142 17 307 4.8 22.5 0.00 0.00 0.00 100
20260504011642 17 319 9.7 20.9 0.00 0.00 0.00 100
20260504011142 17 291 12.9 29.0 0.00 0.00 0.00 100
20260504010642 17 244 14.5 25.7 0.00 0.00 0.00 100
20260504010141 17 239 4.8 19.3 0.00 0.00 0.00 100
20260504005641 17 236 12.9 25.7 0.00 0.00 0.00 100
20260504005141 17 270 16.1 22.5 0.00 0.00 0.00 100
20260504004640 17 271 8.0 25.7 0.00 0.00 0.00 100
20260504004140 17 223 8.0 20.9 0.00 0.00 0.00 100
20260504003640 17 326 3.2 24.1 0.00 0.00 0.00 100
20260504003139 17 268 19.3 30.6 0.00 0.00 0.00 100
20260504002639 17 246 12.9 24.1 0.00 0.00 0.00 100
20260504002139 17 289 9.7 22.5 0.00 0.00 0.00 100
20260504001639 17 306 9.7 19.3 0.00 0.00 0.00 100
20260504001138 17 254 4.8 24.1 0.00 0.00 0.00 100
20260504000638 17 274 14.5 19.3 0.00 0.00 0.00 100
20260504000138 17 251 3.2 24.1 0.00 0.00 0.00 100
20260503235637 18 264 14.5 22.5 0.00 0.00 0.00 100
20260503235137 18 253 8.0 24.1 0.00 0.00 0.00 100
20260503234637 17 319 3.2 22.5 0.00 0.00 0.00 100
20260503234137 17 299 9.7 20.9 0.00 0.00 0.00 100
20260503233636 17 316 4.8 19.3 0.00 0.00 0.00 100
20260503233136 17 272 12.9 20.9 0.00 0.00 0.00 100
20260503232636 18 170 8.0 17.7 0.00 0.00 0.00 100
20260503232135 17 260 12.9 20.9 0.00 0.00 0.00 100
20260503231635 18 284 1.6 16.1 0.00 0.00 0.00 100
20260503231135 18 247 9.7 24.1 0.00 0.00 0.00 100
20260503230635 18 281 9.7 20.9 0.00 0.00 0.00 100
20260503230134 18 244 8.0 16.1 0.00 0.00 0.00 100
20260503225634 18 302 9.7 19.3 0.00 0.00 0.00 100
20260503225134 18 217 9.7 20.9 0.00 0.00 0.00 100
20260503224633 18 307 6.4 20.9 0.00 0.00 0.00 100
20260503224133 18 254 9.7 19.3 0.00 0.00 0.00 100
20260503223633 18 241 3.2 19.3 0.00 0.00 0.00 100
20260503223132 18 210 11.3 20.9 0.00 0.00 0.00 100
20260503222632 18 268 9.7 22.5 0.00 0.00 0.00 100
20260503222132 18 262 17.7 24.1 0.00 0.00 0.00 100
20260503221632 18 206 0.0 17.7 0.00 0.00 0.00 100
20260503221131 18 278 8.0 19.3 0.00 0.00 0.00 100
20260503220631 18 317 4.8 17.7 0.00 0.00 0.00 100
20260503220131 18 298 4.8 22.5 0.00 0.00 0.00 100
20260503215630 18 241 4.8 19.3 0.00 0.00 0.00 100
20260503215130 18 227 6.4 24.1 0.00 0.00 0.00 100
20260503214630 18 271 9.7 24.1 0.00 0.00 0.00 100
20260503214130 18 227 12.9 20.9 0.00 0.00 0.00 100
20260503213629 18 234 9.7 25.7 0.00 0.00 0.00 100
20260503213129 18 251 19.3 24.1 0.00 0.00 0.00 100
20260503212629 18 233 9.7 24.1 0.00 0.00 0.00 100
20260503212128 18 310 1.6 22.5 0.00 0.00 0.00 100
20260503211628 18 253 17.7 29.0 0.00 0.00 0.00 100
20260503211128 18 232 17.7 25.7 0.00 0.00 0.00 100
20260503210628 18 257 14.5 22.5 0.00 0.00 0.00 100
20260503210127 18 257 11.3 20.9 0.00 0.00 0.00 100
20260503205627 18 282 6.4 19.3 0.00 0.00 0.00 100
20260503205127 18 267 9.7 19.3 0.00 0.00 0.00 100
20260503204626 18 229 11.3 25.7 0.00 0.00 0.00 100
20260503204126 18 244 12.9 19.3 0.00 0.00 0.00 100
20260503203626 18 241 11.3 19.3 0.00 0.00 0.00 100
20260503203125 18 279 3.2 19.3 0.00 0.00 0.00 100
20260503202625 19 172 3.2 20.9 0.00 0.00 0.00 100
20260503202125 19 225 12.9 19.3 0.00 0.00 0.00 100
20260503201625 19 250 14.5 19.3 0.00 0.00 0.00 100
20260503201124 19 208 3.2 22.5 0.00 0.00 0.00 100
20260503200624 19 251 1.6 20.9 0.00 0.00 0.00 100
20260503200124 19 292 14.5 22.5 0.00 0.00 0.00 100
20260503195623 19 229 16.1 19.3 0.00 0.00 0.00 100
20260503195123 20 223 14.5 22.5 0.00 0.00 0.00 100
20260503194623 20 264 4.8 22.5 0.00 0.00 0.00 100
20260503194123 20 233 16.1 20.9 0.00 0.00 0.00 100
20260503193622 20 240 14.5 24.1 0.00 0.00 0.00 100
20260503193122 20 232 17.7 20.9 0.00 0.00 0.00 100
20260503192622 20 243 8.0 25.7 0.00 0.00 0.00 100
20260503192121 20 232 14.5 25.7 0.00 0.00 0.00 100
20260503191621 20 220 8.0 25.7 0.00 0.00 0.00 100
20260503191121 20 246 8.0 24.1 0.00 0.00 0.00 100
20260503190621 20 255 8.0 22.5 0.00 0.00 0.00 100
20260503190120 20 189 16.1 24.1 0.00 0.00 0.00 100
20260503185620 20 244 17.7 22.5 0.00 0.00 0.00 100
20260503185120 20 219 9.7 22.5 0.00 0.00 0.00 100
20260503184619 20 175 3.2 24.1 0.00 0.00 0.00 100
20260503184119 20 216 8.0 17.7 0.00 0.00 0.00 100
20260503183619 20 275 9.7 16.1 0.00 0.00 0.00 100
20260503183118 20 250 11.3 17.7 0.00 0.00 0.00 100
20260503182618 20 268 9.7 16.1 0.00 0.00 0.00 100
20260503182118 20 216 11.3 17.7 0.00 0.00 0.00 100
20260503181618 20 201 8.0 19.3 0.00 0.00 0.00 100
20260503181117 21 292 6.4 19.3 0.00 0.00 0.00 100
20260503180617 21 137 3.2 24.1 0.00 0.00 0.00 100
20260503180117 21 255 9.7 20.9 0.00 0.00 0.00 100
20260503175616 21 251 3.2 19.3 0.00 0.00 0.00 100
20260503175116 21 234 14.5 17.7 0.00 0.00 0.00 100
20260503174616 21 258 12.9 17.7 0.00 0.00 0.00 100
20260503174116 21 244 12.9 17.7 0.00 0.00 0.00 100
20260503173615 21 239 11.3 16.1 0.00 0.00 0.00 100
20260503173115 21 189 3.2 22.5 0.00 0.00 0.00 100
20260503172615 22 258 8.0 24.1 0.00 0.00 0.00 100
20260503172114 22 254 9.7 27.4 0.00 0.00 0.00 100
20260503171614 22 241 16.1 25.7 0.00 0.00 0.00 100
20260503171114 22 253 12.9 20.9 0.00 0.00 0.00 100
20260503170614 22 248 8.0 22.5 0.00 0.00 0.00 100
20260503170113 22 227 12.9 22.5 0.00 0.00 0.00 100
20260503160110 23 216 4.8 27.4 0.00 0.00 0.00 100
20260503150607 24 250 14.5 30.6 0.00 0.00 0.00 100
20260503150106 25 212 19.3 35.4 0.00 0.00 0.00 100
20260503131100 26 202 16.1 37.0 0.00 0.00 0.00 100
20260503130559 26 225 20.9 33.8 0.00 0.00 0.00 100
20260503110553 25 229 14.5 25.7 0.00 0.00 0.00 100